Theta_e
314 314 313 312 311 311 310 311 311 311 314 314 312 318 326 323 314 320 338 339 339 352 354 342 339 338 337 339 339 338 339 339 339 338 338 339 338 337 336 335 335 334 334 334 332 329 328 327 326 324 323 322 321 321 321 320 319 318 317 316 316 317 316 316 316 317 316 315 315 314 314 313 313 313 312 312 311 310 309 309 309 310 310 310 309 308 307
316 316 313 310 310 311 310 312 313 313 317 316 314 324 331 322 318 331 338 340 348 352 344 338 337 335 336 338 338 339 340 339 339 339 338 338 338 336 335 335 335 334 333 333 330 328 327 326 324 323 321 320 320 319 319 319 318 317 316 316 317 319 317 315 316 315 315 314 314 313 313 312 312 311 310 310 309 308 308 308 309 309 309 309 308 307 306
316 318 314 309 310 313 312 312 315 315 315 315 318 329 331 324 328 337 336 342 352 346 336 334 333 332 337 340 339 340 340 339 338 338 338 338 337 336 335 335 334 333 333 332 329 328 327 325 323 322 320 319 319 318 317 317 317 315 315 316 317 317 315 314 314 314 314 314 313 312 312 312 311 310 309 308 308 308 308 309 309 309 309 308 307 306 305
317 316 316 312 312 315 313 313 316 317 319 319 320 327 328 326 334 338 331 336 349 345 335 333 333 335 339 340 340 341 340 338 338 338 338 337 336 336 335 334 334 333 333 331 329 327 326 324 322 321 320 319 318 317 317 316 316 316 316 316 315 314 314 313 313 314 313 312 311 311 311 311 310 309 308 307 307 307 308 309 309 308 308 307 306 304 302
314 314 318 315 314 315 314 319 321 319 322 323 318 320 325 328 337 341 333 332 344 341 334 334 335 337 340 340 340 341 339 338 338 337 336 336 335 335 335 334 334 333 332 330 328 327 325 323 322 320 319 318 317 317 316 315 315 315 315 314 313 313 313 312 312 313 312 311 311 311 310 309 309 308 307 306 307 307 308 308 308 308 307 306 304 302 299
314 316 319 314 314 315 317 324 326 319 318 322 319 320 326 327 330 337 337 333 334 336 334 334 335 336 338 339 337 338 338 338 337 337 336 335 335 334 334 333 333 332 330 329 327 326 325 323 321 320 319 318 317 316 316 314 314 314 314 313 313 312 312 311 312 311 311 311 310 310 309 308 308 307 306 306 306 306 307 308 308 307 306 305 302 299 297
319 321 324 316 315 320 323 324 322 321 321 324 323 322 324 325 325 331 336 333 332 337 335 332 334 336 336 336 336 336 337 336 337 337 336 334 334 334 333 332 332 330 328 327 326 325 324 322 320 319 318 318 316 315 315 314 313 313 313 313 312 312 312 311 311 311 310 310 309 308 308 307 307 306 306 305 305 306 307 308 307 306 305 304 301 298 297
316 323 325 320 318 323 326 323 320 323 321 319 320 318 318 322 326 331 337 336 334 337 335 333 336 336 335 335 337 337 335 334 336 336 335 334 334 333 332 331 330 328 327 325 325 324 323 321 320 319 318 317 316 314 314 313 313 313 313 312 312 311 311 311 310 310 310 309 307 307 307 307 306 306 305 305 305 305 306 307 307 305 304 302 300 298 297
318 325 323 323 325 324 326 326 322 322 318 314 322 324 317 319 324 329 336 339 336 336 336 336 336 335 335 337 337 336 336 335 335 335 334 334 332 331 330 329 329 328 327 326 324 323 322 320 319 318 317 316 315 314 313 313 312 312 312 312 312 311 310 310 309 309 309 308 307 306 306 306 306 305 305 305 304 305 306 306 306 304 303 302 301 299 299
321 327 321 324 329 324 326 330 324 322 321 318 322 326 320 319 322 325 332 337 337 336 336 336 336 337 342 345 342 336 336 336 335 335 335 332 329 329 328 327 327 326 325 324 323 322 321 319 319 318 316 315 314 313 313 312 312 312 312 312 311 311 310 310 309 309 309 308 307 306 306 306 306 304 304 303 304 304 305 306 306 304 302 301 301 300 300
326 333 326 323 325 323 326 330 326 323 323 320 320 320 319 320 321 323 329 335 336 337 336 335 336 342 351 357 348 336 333 335 335 334 334 331 328 327 328 327 325 323 322 322 321 321 320 318 317 317 316 315 314 313 312 312 311 312 312 311 311 311 310 309 308 308 308 308 307 306 306 306 305 304 302 302 303 303 304 306 306 305 303 301 301 301 301
327 333 326 319 322 325 324 325 327 324 318 317 318 319 323 325 323 323 329 334 335 336 335 335 339 346 352 354 345 333 331 334 332 330 331 330 327 326 327 325 323 322 321 320 319 319 319 318 317 316 315 314 313 312 312 311 311 311 311 310 310 310 310 309 308 308 309 308 307 307 306 306 304 303 301 301 302 302 303 304 305 305 304 303 302 302 302
326 329 323 316 321 326 322 323 328 323 316 318 324 327 329 329 327 326 329 332 333 334 335 337 341 341 338 337 334 331 331 332 331 327 325 325 326 326 325 323 321 321 320 319 319 319 319 318 316 315 315 314 313 312 312 311 311 310 310 310 310 310 310 308 308 308 309 308 308 307 307 305 303 301 300 300 301 302 303 303 304 304 304 304 303 303 302
318 324 325 319 321 324 321 322 324 320 317 323 330 329 327 327 326 328 328 330 332 334 334 336 337 333 329 328 329 330 330 331 330 327 323 323 325 324 323 322 321 320 320 319 319 319 318 317 315 315 314 313 312 311 311 311 310 310 310 310 310 310 309 308 307 308 308 308 308 307 306 303 301 299 299 300 301 302 302 303 303 303 303 303 302 301 301
314 326 326 320 324 325 321 323 327 325 324 329 331 329 329 328 328 328 328 328 331 334 334 333 332 331 329 329 329 328 329 329 327 326 324 323 323 322 321 320 320 320 320 318 318 318 317 315 315 314 314 312 311 311 311 310 310 311 310 310 310 310 309 308 307 307 308 308 307 305 304 301 299 298 299 300 301 302 302 302 301 301 301 301 300 299 299
318 324 321 319 326 327 322 325 330 328 325 324 325 328 331 331 330 331 331 329 329 331 334 333 331 329 328 328 328 329 328 327 326 325 324 323 321 320 320 320 320 320 319 318 317 317 316 315 314 314 313 312 311 311 310 310 310 310 310 309 310 309 309 307 307 308 308 307 306 304 302 300 298 297 299 300 300 300 301 301 300 299 298 299 299 297 297
317 317 319 322 325 324 322 323 326 327 326 323 322 326 330 332 330 328 330 332 329 329 331 332 333 332 328 325 327 328 327 326 325 324 324 322 320 320 320 319 319 319 319 318 317 316 315 314 314 313 313 312 311 310 310 310 310 310 309 309 309 309 308 308 307 308 308 307 306 304 301 300 298 297 298 300 299 299 300 300 299 298 298 298 298 297 297
319 318 322 323 324 325 324 323 323 325 326 324 323 327 332 332 328 324 326 328 328 328 328 328 331 332 327 324 325 327 326 326 325 323 323 321 320 320 319 318 318 319 318 317 316 315 314 314 313 313 314 314 313 310 310 310 310 310 309 309 309 309 308 308 308 308 307 306 305 303 301 300 298 296 298 299 299 298 299 299 299 298 297 298 298 297 297
325 325 325 323 324 325 324 324 325 326 324 322 322 325 329 329 327 325 324 322 323 325 326 327 330 329 324 323 325 325 325 325 324 323 322 320 319 319 318 318 318 318 317 316 315 314 314 313 313 313 313 314 313 311 310 310 310 310 309 309 309 309 308 308 307 307 307 305 304 302 300 299 297 296 296 298 298 298 298 298 298 297 297 297 297 297 297
325 324 323 323 324 323 322 323 325 325 325 326 324 322 323 325 325 325 323 321 322 323 324 326 328 326 322 323 324 324 324 324 323 322 321 319 319 318 317 317 317 316 316 315 314 314 313 312 312 313 312 312 311 311 310 310 310 309 309 309 309 308 308 307 306 306 306 305 303 301 299 298 297 295 295 296 296 296 296 296 296 296 296 296 296 296 296
324 323 323 324 326 326 325 324 323 322 322 325 326 324 324 326 328 328 325 322 322 323 324 324 325 324 322 322 322 322 322 322 321 320 319 318 318 317 316 316 317 316 315 315 314 313 313 311 312 312 311 310 310 310 310 310 309 309 309 309 308 307 306 306 306 305 306 305 304 302 299 297 296 295 295 296 296 296 296 296 295 295 295 295 295 295 295
327 324 323 322 324 327 328 325 324 323 319 321 328 330 328 328 328 329 328 326 322 322 321 321 323 324 322 321 323 323 323 322 320 318 318 317 317 317 316 316 316 315 315 314 313 312 311 311 311 311 309 308 309 309 309 309 309 309 309 308 306 305 305 305 305 304 304 304 303 302 299 297 296 296 297 298 298 298 298 297 297 297 296 296 296 295 295
324 322 321 319 320 324 326 323 323 322 317 319 328 330 327 326 325 325 328 330 326 323 321 318 320 323 321 320 322 324 323 321 319 317 317 316 315 315 315 315 315 315 314 313 313 311 310 310 310 309 308 308 308 309 309 309 309 309 308 306 305 304 304 304 304 304 303 302 302 301 299 297 297 298 298 298 299 299 299 299 298 298 298 297 297 295 294
321 320 320 319 320 323 323 322 323 319 314 318 325 325 322 323 323 321 324 326 326 324 322 318 317 319 319 317 319 321 320 319 317 317 317 316 315 315 315 315 314 314 313 312 311 310 309 309 308 308 307 308 309 308 308 308 309 309 308 306 304 303 304 304 304 304 303 301 300 299 298 297 298 299 299 299 299 299 300 300 300 299 299 298 297 295 293
320 319 318 318 320 322 322 322 321 317 314 317 322 322 320 321 322 322 323 324 322 321 322 321 317 315 316 314 314 316 317 316 317 317 316 315 315 315 314 314 313 313 312 311 310 309 308 307 307 307 307 308 308 308 307 308 308 308 307 306 305 304 303 304 303 303 302 299 297 297 297 298 299 300 300 300 299 299 300 300 300 301 300 299 297 294 292
317 317 316 317 319 320 321 322 322 319 316 315 318 319 317 317 319 319 318 318 316 315 318 320 317 315 315 315 313 314 315 314 315 316 314 314 314 314 314 314 313 312 311 310 309 308 307 307 307 306 306 306 306 306 307 308 308 308 307 307 306 305 305 304 303 302 301 299 298 298 298 300 300 301 301 301 301 300 300 300 300 300 301 300 296 293 291
314 313 315 320 324 323 321 320 320 318 315 314 318 320 315 310 312 314 313 312 311 311 312 315 315 314 315 315 313 314 314 313 313 315 314 313 314 314 314 313 312 311 310 308 307 307 306 306 306 306 306 307 307 306 307 307 307 307 306 306 306 306 306 305 305 303 302 302 301 301 301 301 302 302 302 302 302 302 301 300 300 301 300 298 296 293 291
316 313 314 321 325 322 317 315 316 317 315 313 315 316 314 312 315 318 318 316 314 312 312 312 313 313 314 313 312 312 313 313 313 313 313 313 314 314 313 312 311 310 309 307 307 307 306 306 306 305 306 307 307 307 306 306 307 306 305 305 305 305 305 305 305 305 304 303 303 303 302 302 302 302 302 302 302 302 302 301 302 301 299 297 296 293 291
318 314 314 317 318 316 316 317 319 319 317 314 313 315 318 321 322 320 319 318 317 316 314 313 313 313 313 313 312 311 311 313 313 312 313 313 313 313 312 311 310 309 308 307 307 307 307 307 306 304 304 305 305 305 306 306 306 305 305 305 305 304 304 303 304 304 304 303 303 303 303 303 302 302 302 302 302 301 301 301 301 300 298 297 295 292 290
315 313 314 315 314 316 320 321 319 319 318 317 317 318 320 323 323 320 318 317 318 317 314 311 312 313 312 312 312 312 312 313 313 312 313 313 312 311 311 309 308 307 306 306 306 306 306 306 305 304 304 304 304 305 305 305 305 305 305 305 305 305 304 303 303 303 302 302 301 302 302 302 302 302 301 301 301 301 300 300 300 299 297 296 294 291 291
314 314 315 315 314 316 318 317 317 318 316 315 317 319 318 321 323 321 318 318 319 317 312 311 312 312 311 311 313 313 313 313 313 312 312 311 310 310 310 309 309 307 306 306 306 306 306 305 305 305 305 305 305 305 305 305 305 304 304 304 304 304 304 304 303 303 302 301 301 301 301 301 301 301 301 300 299 299 299 299 299 298 297 295 292 290 291
317 317 316 316 317 318 317 316 317 318 316 315 316 316 314 315 318 317 317 317 316 313 313 314 313 311 310 312 313 313 312 312 311 310 310 309 309 309 309 310 309 308 307 307 306 306 306 305 304 305 305 305 305 305 304 304 304 304 303 303 303 302 302 302 303 302 302 302 302 301 301 301 300 300 300 300 299 299 299 298 297 296 295 293 291 290 291
320 318 316 315 317 318 318 317 317 317 315 314 313 312 311 313 315 315 312 310 309 310 312 314 312 310 310 312 311 310 309 309 309 308 307 307 307 308 308 309 309 308 307 307 306 306 306 305 305 305 305 305 305 304 304 304 304 304 304 303 303 302 301 301 302 302 302 302 302 301 301 301 300 300 299 299 299 299 298 296 295 293 292 292 291 291 291
316 315 313 313 315 317 316 316 316 316 316 314 313 313 312 310 310 309 306 305 308 312 311 310 310 310 311 310 309 308 308 309 309 308 306 306 307 307 307 308 308 307 307 307 306 306 305 305 305 305 305 304 305 304 303 303 303 303 303 303 303 302 301 300 301 302 301 301 301 301 301 301 300 300 299 299 299 298 297 295 293 291 291 291 291 291 292
310 311 310 310 311 312 314 315 315 316 317 316 315 314 309 304 302 304 303 304 308 310 308 307 310 311 309 308 307 306 307 308 308 306 305 306 306 306 307 307 307 306 306 306 306 306 305 306 306 305 304 304 304 304 304 304 304 303 304 303 303 302 301 301 301 302 302 302 301 301 300 300 300 299 299 299 299 298 296 294 292 291 291 292 292 292 293
307 312 314 312 306 305 309 310 308 309 314 317 315 311 307 301 300 303 304 304 307 309 308 308 310 309 308 307 307 306 307 307 306 305 305 306 306 306 306 306 306 305 305 304 305 305 305 306 306 306 305 304 304 304 304 304 304 304 303 303 302 302 302 301 301 301 301 301 301 301 300 300 299 299 299 299 299 297 295 292 291 291 292 293 295 295 296
305 308 313 311 304 301 302 303 302 304 308 309 307 305 304 301 301 304 306 307 308 309 309 308 308 307 307 307 307 307 307 307 306 305 305 305 305 306 305 305 305 304 304 304 304 304 305 306 306 305 305 304 304 304 304 305 305 304 303 302 302 302 302 301 300 300 300 300 300 300 299 299 298 298 298 298 297 296 293 291 291 293 294 296 297 297 297
303 302 306 307 304 302 303 304 304 305 305 304 303 303 304 304 305 307 307 306 307 308 309 309 308 307 307 307 306 306 306 306 305 305 305 305 305 305 304 304 304 304 304 304 304 304 305 305 305 305 305 304 304 304 304 304 304 304 303 302 302 302 302 301 300 299 298 298 298 298 297 297 297 297 296 296 295 293 292 292 294 295 297 298 298 298 298
309 306 305 304 304 305 305 305 306 306 306 305 305 305 306 306 307 307 306 306 306 307 308 308 307 306 306 305 304 304 304 304 304 304 304 304 305 305 304 304 304 304 304 305 304 304 304 304 304 304 305 304 304 304 304 304 304 304 304 303 302 302 301 301 300 299 298 297 297 296 295 295 295 295 294 293 292 291 292 294 296 297 298 298 298 298 298
315 311 306 304 305 305 305 305 306 306 306 306 305 305 306 306 306 307 306 306 305 306 307 307 307 305 304 304 303 303 303 303 304 304 304 304 304 304 303 303 303 304 304 305 305 304 304 304 304 304 304 304 304 304 304 304 304 303 303 303 302 301 301 301 301 299 298 297 295 294 293 293 293 293 292 292 292 293 295 297 297 298 298 298 298 298 298
311 306 303 303 304 304 304 304 305 305 305 306 305 305 305 305 305 306 306 305 305 305 306 306 306 305 304 304 303 303 303 303 304 304 304 304 303 303 302 302 303 303 304 304 305 305 304 304 305 305 304 304 304 304 304 304 303 302 301 301 301 301 301 301 300 299 297 296 294 293 292 292 292 291 291 292 293 295 297 297 298 298 298 298 298 298 298
306 303 303 303 303 303 304 304 304 304 305 305 305 305 305 305 305 306 306 305 305 305 305 305 305 305 304 304 303 303 303 303 303 303 303 303 303 302 302 302 303 303 304 304 304 304 304 304 304 304 304 304 304 304 303 303 302 300 300 300 301 300 300 300 299 297 296 294 293 292 292 292 293 293 293 294 295 296 297 297 298 298 298 298 298 299 299
303 303 304 304 303 304 305 304 304 305 305 305 305 305 304 304 305 305 305 305 305 304 304 304 304 304 304 304 303 303 303 303 303 303 303 303 303 303 303 303 303 303 303 304 304 303 304 304 304 304 304 304 303 303 303 303 301 300 299 299 300 300 299 299 297 295 294 293 293 293 293 294 295 296 296 296 297 297 298 298 298 298 299 299 299 299 299
302 303 304 303 304 305 305 304 304 305 304 304 305 304 304 304 305 305 305 305 305 304 304 304 304 303 303 303 303 303 303 303 303 303 303 302 302 303 304 304 303 303 303 303 303 303 304 304 304 304 304 303 303 303 302 301 300 300 299 299 299 299 299 298 297 295 295 295 295 296 296 297 297 297 297 297 298 298 298 298 298 299 299 299 299 299 299
304 305 304 304 305 306 304 304 305 305 304 304 304 304 304 304 304 304 304 305 304 304 304 304 304 303 303 303 303 303 303 303 303 303 302 302 302 302 303 303 303 303 303 303 303 303 303 303 303 303 303 303 303 302 302 301 301 301 300 300 300 300 300 299 299 298 298 298 298 298 298 298 298 298 298 299 299 299 299 298 298 298 299 299 299 299 299
304 305 305 305 306 305 305 305 306 305 304 304 305 304 304 304 304 304 304 304 304 304 304 304 303 303 303 303 303 303 303 303 303 303 303 303 303 303 303 303 303 303 302 303 303 303 303 303 303 302 302 302 302 302 302 302 302 301 301 301 301 301 301 301 300 300 299 299 299 299 299 299 299 299 299 299 299 299 299 299 299 299 299 299 299 299 299
304 305 305 305 306 306 305 305 305 304 304 305 305 304 303 303 304 304 303 303 303 304 303 303 303 303 303 303 303 303 303 303 303 303 303 303 303 303 303 303 302 302 302 303 303 302 302 302 302 302 302 302 302 301 302 302 301 301 301 301 301 301 301 300 300 301 300 300 300 300 299 299 299 299 299 299 299 299 299 299 299 299 299 299 299 299 299
305 305 306 306 306 306 305 305 305 303 303 303 304 303 303 303 303 303 303 303 303 303 303 303 303 303 303 303 304 304 303 303 302 302 303 303 303 303 303 302 302 302 302 302 302 301 301 301 301 302 302 302 302 301 301 301 300 300 300 299 299 299 299 299 299 299 299 299 299 299 299 299 299 299 299 299 299 299 299 299 299 299 299 299 299 299 299
305 306 306 305 305 305 305 304 304 303 303 303 303 303 303 303 303 303 303 303 303 303 303 303 303 303 303 303 303 303 303 303 303 303 303 303 303 303 302 302 302 302 302 301 301 301 301 302 302 302 302 301 301 301 301 301 301 301 301 300 300 299 299 299 299 299 299 299 299 299 299 299 299 299 299 299 299 299 299 299 299 299 299 299 299 299 299
306 306 305 305 305 305 305 304 303 303 304 304 303 303 303 303 303 303 303 302 303 303 303 303 303 303 303 303 303 303 303 303 303 303 303 303 303 303 302 302 302 302 302 302 302 302 302 302 302 302 301 301 301 301 300 300 299 299 299 299 299 299 299 299 299 299 299 299 299 298 298 298 299 299 299 299 299 299 299 299 299 299 299 298 298 299 299
306 306 305 306 306 306 305 304 304 304 304 304 303 303 303 303 303 303 302 302 302 303 303 302 303 303 303 303 303 303 303 303 303 303 303 303 303 302 302 302 301 302 302 302 302 302 301 301 301 301 301 301 301 301 300 300 299 298 298 298 298 298 299 299 299 299 299 299 298 298 298 299 299 299 299 299 299 299 299 299 299 298 298 298 298 298 297
306 306 306 306 306 306 305 305 304 304 305 304 304 303 303 303 302 302 302 302 302 303 303 302 302 303 303 303 303 303 303 303 303 303 303 303 303 302 301 301 302 302 302 302 302 302 301 301 301 301 301 301 301 301 301 300 300 299 299 299 298 298 298 298 299 299 299 299 299 299 299 299 299 299 299 299 300 299 299 299 298 298 297 297 297 296 296
Wind_Speed
5 5 6 10 12 9 9 12 11 9 8 10 10 8 7 7 6 7 6 6 6 6 2 3 4 3 4 4 6 8 8 8 9 10 13 13 11 9 10 10 10 10 10 9 10 13 18 21 22 22 23 24 26 28 30 29 28 28 29 31 31 30 30 31 32 32 30 29 28 27 26 25 24 23 22 21 19 18 17 18 21 23 24 24 24 24 21
1 1 5 9 12 10 8 11 13 11 11 13 12 8 6 6 4 5 5 7 7 7 4 3 3 3 3 4 6 7 8 9 10 11 12 12 11 11 11 11 10 10 10 10 11 14 18 21 22 23 23 24 25 26 28 30 29 28 31 34 34 34 33 32 32 31 30 29 28 27 27 27 26 25 23 22 20 19 20 22 24 25 25 25 25 24 21
5 4 2 7 11 12 9 7 8 10 10 8 6 4 4 3 1 2 4 3 6 6 3 3 2 4 6 7 8 9 8 9 11 11 11 12 12 12 11 11 11 10 10 10 11 13 17 20 23 23 23 25 26 25 27 30 30 30 33 36 35 33 33 32 32 31 30 29 29 29 29 28 26 25 24 22 22 22 23 24 26 26 27 27 25 23 21
4 4 3 6 8 11 10 5 6 8 8 6 4 3 5 6 4 2 4 1 5 4 3 5 3 6 9 8 9 9 8 9 12 12 11 12 13 13 12 11 11 11 11 12 11 13 17 21 23 24 24 25 26 26 26 28 32 34 35 34 32 31 31 31 31 30 29 29 30 29 29 28 27 25 23 23 24 24 25 25 27 27 28 27 25 22 21
2 4 3 7 8 9 5 4 7 8 6 5 3 1 3 6 6 6 4 4 6 4 6 6 5 7 9 8 8 8 8 10 11 11 11 11 11 12 11 11 11 10 10 11 13 16 19 21 23 24 26 26 25 27 28 29 33 36 34 32 30 28 27 28 29 30 30 30 30 30 29 28 27 25 24 24 25 25 25 26 27 28 28 26 24 23 23
1 3 2 6 8 5 5 6 5 5 4 6 6 2 5 7 4 3 4 5 3 4 6 7 7 6 7 6 6 7 8 9 9 9 10 10 10 11 10 9 9 8 8 11 15 18 20 22 23 25 26 27 27 29 31 30 30 31 31 30 30 28 27 28 28 29 30 30 31 31 31 29 28 26 25 25 25 25 26 27 28 29 28 26 25 25 26
2 2 4 6 4 5 6 4 3 4 4 7 7 3 2 5 3 1 1 1 1 3 4 5 6 5 6 6 5 5 7 9 10 10 9 10 11 10 9 9 7 6 8 12 15 18 21 23 25 25 26 28 28 29 31 31 30 30 30 30 30 30 29 28 28 29 30 31 31 31 31 30 28 27 26 26 26 26 26 27 29 29 27 26 27 27 28
2 2 5 4 3 5 4 3 1 3 2 3 5 4 3 1 4 2 1 1 2 5 5 5 6 6 6 6 5 5 7 9 10 11 10 10 11 10 9 11 11 12 15 17 19 21 23 25 26 25 26 28 28 28 30 31 30 30 31 30 29 28 28 28 28 29 30 31 31 31 31 30 28 27 27 26 26 26 26 27 29 29 27 26 28 29 29
3 4 3 1 1 3 4 3 1 2 1 0 4 4 1 2 3 5 4 3 4 6 5 5 6 6 6 5 3 6 8 8 8 8 8 9 9 10 13 14 17 23 27 27 25 25 25 26 26 26 27 29 29 28 29 30 30 29 29 29 28 28 28 29 29 29 30 31 31 31 31 30 29 27 26 25 25 26 27 28 30 29 27 27 28 28 28
2 5 4 3 4 2 3 5 3 1 3 5 4 6 1 5 4 3 6 6 6 6 6 7 7 5 5 2 4 6 8 8 8 8 7 7 9 13 16 16 15 19 25 28 28 29 28 26 26 28 29 29 29 27 28 31 32 30 29 29 28 28 29 30 31 31 31 32 32 31 31 30 29 27 26 25 25 26 27 29 30 29 28 28 27 26 25
2 5 5 2 2 1 4 7 7 5 4 5 3 6 1 6 6 2 5 7 7 6 7 8 7 5 4 4 5 5 8 8 8 9 8 8 10 15 19 20 17 17 22 26 27 28 29 26 26 29 31 31 29 27 27 29 31 29 29 29 29 29 29 30 31 32 32 32 32 32 31 29 28 26 25 25 25 26 27 28 29 29 29 28 26 25 23
2 4 3 1 2 1 3 6 7 6 2 3 6 4 4 7 5 3 5 7 8 7 7 6 5 6 5 5 4 7 9 8 8 9 9 9 11 13 17 21 23 23 24 25 24 24 26 28 28 30 30 29 28 27 28 29 28 27 27 28 28 28 28 29 31 32 33 33 32 31 30 28 26 25 24 24 26 27 28 28 29 29 28 27 26 24 22
3 4 4 0 2 2 4 6 7 6 1 6 6 4 7 5 4 4 5 7 7 7 8 6 3 3 3 4 4 9 10 9 8 8 10 13 16 18 21 23 26 27 26 27 27 26 28 31 32 31 30 27 26 27 28 26 24 25 27 28 29 29 29 30 32 33 33 33 31 30 28 27 25 24 24 25 27 28 28 28 28 28 27 26 25 23 21
3 3 4 2 2 2 3 6 7 3 2 3 3 5 5 3 3 4 5 7 7 7 7 3 1 2 3 2 5 10 10 10 9 8 10 12 14 18 23 26 27 26 24 26 28 28 28 30 31 31 30 27 26 27 27 25 24 25 28 30 31 31 31 32 33 33 33 31 30 29 28 27 25 25 25 26 28 29 28 28 28 28 27 26 24 23 21
2 3 4 3 0 3 3 5 5 3 2 3 5 3 2 3 4 3 5 7 7 7 6 3 2 2 1 3 5 8 9 9 9 9 10 11 11 15 20 24 26 26 23 24 26 26 26 28 29 29 29 27 26 26 26 25 27 29 29 31 32 32 32 32 33 33 32 30 29 29 28 27 26 26 27 28 29 29 29 29 29 29 28 27 25 24 22
3 3 2 1 3 4 3 2 1 0 2 3 4 2 2 3 2 3 4 6 7 8 7 4 2 0 1 3 5 6 8 9 10 10 10 11 13 16 19 21 25 26 23 22 23 24 26 28 29 30 31 31 28 26 25 26 28 30 31 32 32 32 31 32 33 32 31 29 29 29 29 27 26 28 29 29 29 29 30 30 30 29 28 27 27 25 23
2 3 3 4 4 4 4 2 2 4 5 3 2 3 2 3 2 3 3 5 6 7 7 6 4 2 3 4 6 7 7 8 10 10 11 13 15 17 18 20 23 24 24 23 23 22 24 27 29 30 32 34 30 27 28 30 31 31 32 33 32 32 32 32 32 32 30 30 29 29 29 27 27 28 30 30 30 30 30 30 30 29 28 27 26 25 23
1 1 1 2 2 3 4 4 3 5 5 4 2 1 3 4 3 3 3 5 6 6 7 7 5 3 4 5 5 6 6 7 9 9 10 12 16 18 18 19 21 22 22 23 23 22 22 25 27 29 32 34 32 29 31 33 32 32 33 33 32 31 31 31 32 32 31 31 31 30 29 27 27 28 30 31 31 30 29 29 28 27 27 25 24 23 22
2 2 2 4 3 3 4 5 4 3 4 4 3 1 4 5 5 4 3 4 5 6 7 8 6 5 5 6 5 4 6 7 8 9 9 11 15 17 18 20 22 22 21 20 21 22 23 24 26 29 31 33 33 33 33 33 32 33 34 34 32 31 31 32 32 32 33 32 32 32 30 29 29 29 30 31 31 30 29 28 27 26 25 24 23 23 21
2 1 4 5 3 3 2 2 3 4 5 6 5 3 4 4 4 5 4 1 4 5 5 6 6 5 4 3 3 1 1 3 5 8 9 11 14 17 20 22 23 22 21 20 21 23 24 25 27 29 29 30 32 34 34 33 34 35 34 34 33 31 31 32 32 32 33 33 32 32 31 31 31 31 31 31 30 29 28 26 26 26 24 23 23 22 22
3 1 4 5 4 3 4 4 3 4 5 6 6 4 3 3 4 4 5 4 2 4 5 5 7 7 6 5 7 7 6 4 2 4 9 13 15 17 20 22 23 22 22 22 23 23 24 27 29 28 28 29 33 35 35 35 36 36 35 34 33 32 32 32 32 32 32 32 32 32 31 31 31 31 31 29 27 25 24 22 20 20 21 21 20 20 20
2 1 3 2 2 1 4 5 6 6 5 5 5 5 5 5 4 3 4 5 5 4 5 5 7 8 7 7 8 7 4 4 4 2 6 12 14 16 19 20 20 22 23 24 24 24 24 27 29 28 27 30 33 35 36 37 37 37 35 34 32 32 32 32 32 32 32 32 32 32 31 32 31 30 29 26 24 22 21 19 17 15 14 13 14 15 16
1 3 4 2 2 1 4 5 6 7 5 4 5 5 4 5 5 2 2 4 4 5 5 5 6 8 8 8 9 9 9 9 8 5 7 10 13 15 18 18 18 19 22 23 24 23 23 25 27 26 27 31 34 34 36 37 37 37 36 34 32 31 32 33 33 33 33 32 32 32 32 33 32 30 28 26 23 22 20 18 17 14 11 9 9 10 11
1 3 4 4 3 2 4 5 5 6 5 4 4 4 4 5 4 3 3 4 4 3 4 4 4 5 4 3 3 4 7 11 15 15 13 13 16 17 17 18 18 19 20 21 22 22 23 24 25 26 28 32 34 35 35 36 37 37 36 35 33 32 32 33 34 34 33 33 32 32 33 33 33 31 28 25 22 21 20 20 19 16 12 9 7 8 8
0 2 2 3 4 4 5 5 4 4 5 4 4 4 5 5 4 4 5 5 4 4 5 6 7 8 9 7 7 7 4 3 12 19 18 15 16 17 16 17 19 20 20 21 21 22 22 23 24 26 29 31 33 34 35 35 36 36 36 35 35 33 33 34 34 34 34 34 33 34 34 33 32 30 29 26 23 19 18 19 19 18 16 12 9 8 9
3 4 2 1 1 3 3 1 2 6 7 5 4 4 5 5 6 6 6 5 5 5 6 5 6 9 11 9 9 10 7 5 7 15 17 15 15 16 16 18 19 20 20 21 22 23 24 25 26 27 27 27 28 31 34 35 35 35 35 36 36 36 36 36 35 35 35 35 35 35 35 33 31 30 29 27 24 21 18 16 16 17 17 15 11 10 10
3 3 1 0 3 5 4 2 2 5 6 5 4 4 5 6 8 8 9 9 8 8 8 9 10 10 10 11 13 14 13 11 10 10 12 14 15 16 17 18 19 20 21 22 22 23 24 25 27 28 28 28 28 29 32 34 35 35 35 35 36 36 36 36 36 36 36 36 36 35 34 32 31 29 27 25 23 22 19 18 17 17 17 16 13 12 12
4 4 1 2 2 3 2 2 2 3 4 5 5 4 4 7 9 8 8 8 7 6 7 8 9 8 7 9 11 11 11 12 11 10 11 14 15 16 18 18 19 21 23 24 25 26 26 25 26 26 28 31 32 32 32 33 33 34 34 34 35 36 35 35 36 36 36 36 35 34 33 32 30 28 26 24 22 21 20 19 18 19 19 18 15 13 14
4 5 3 2 1 2 1 3 4 5 6 6 6 6 6 7 8 8 6 5 5 4 5 5 6 6 7 9 11 8 7 8 10 11 13 15 16 17 19 19 20 21 23 24 26 28 28 28 26 23 23 26 30 31 32 33 33 33 34 34 35 35 35 35 35 36 35 34 34 33 32 31 29 27 25 23 22 21 20 20 20 21 22 20 18 16 17
5 4 4 5 4 4 5 5 5 6 7 6 6 7 7 6 7 6 5 5 5 4 4 4 5 6 7 8 8 8 7 8 10 12 14 15 17 19 21 21 19 18 18 21 23 25 24 25 25 24 23 25 26 28 30 32 32 32 33 34 35 35 36 35 35 34 33 32 32 31 30 29 28 26 25 23 23 22 22 22 22 23 23 21 20 20 20
4 6 6 6 6 7 6 5 4 5 6 6 7 8 8 6 6 5 4 4 4 4 4 4 5 6 6 7 8 9 10 10 11 12 13 15 18 21 24 25 22 19 19 23 25 25 24 23 25 27 29 30 30 30 30 32 32 32 32 32 33 34 35 35 34 33 32 31 30 29 29 29 28 26 25 25 25 24 23 22 22 22 22 22 21 21 21
5 7 7 6 6 6 6 5 5 5 6 6 7 7 6 5 5 4 4 4 3 2 3 4 5 5 7 9 10 10 11 12 13 13 13 15 18 21 23 23 22 20 22 25 26 26 25 24 25 28 30 31 31 31 31 32 32 32 32 32 32 32 33 33 33 32 31 31 30 29 29 29 28 27 27 27 26 24 22 21 21 21 22 23 22 22 21
6 5 4 4 4 6 6 5 4 4 5 4 4 3 3 3 4 4 4 4 4 3 2 4 5 5 8 11 12 13 14 13 12 12 13 14 16 18 18 17 16 17 20 22 24 25 25 26 27 28 30 30 31 31 31 31 31 31 31 31 31 31 31 30 30 30 30 30 30 30 29 28 27 28 28 27 25 23 22 20 20 21 22 22 21 20 19
5 4 2 0 1 4 4 2 2 3 4 3 3 3 4 5 4 4 4 5 5 5 4 2 6 8 9 10 12 14 14 10 7 8 12 15 16 16 15 14 15 17 19 21 23 24 24 26 28 29 29 30 31 31 30 29 29 29 29 29 28 29 29 29 29 29 29 29 29 28 27 27 27 28 27 26 24 23 21 20 20 21 21 21 20 19 19
5 5 3 2 2 3 4 3 3 3 4 4 4 4 4 5 5 6 7 7 5 5 5 2 5 9 10 10 11 11 10 8 7 9 12 15 16 17 16 15 16 17 17 19 22 24 25 26 28 29 29 29 30 30 29 28 26 25 24 25 26 28 29 28 28 28 28 28 27 27 27 27 27 27 26 25 23 22 20 20 21 21 21 21 20 19 18
5 5 3 3 4 4 4 4 3 4 4 4 3 3 4 6 7 7 6 6 6 5 4 2 3 7 9 9 9 8 7 8 11 12 13 14 16 17 17 17 18 19 18 16 18 23 25 26 28 29 29 29 29 28 28 26 23 21 22 24 26 27 28 28 27 26 26 26 26 26 27 27 26 25 24 23 22 21 21 21 22 22 22 21 20 19 18
6 5 4 3 4 5 5 4 4 4 4 4 3 3 4 6 8 7 6 6 6 5 4 3 1 3 7 8 8 8 8 10 12 14 15 16 17 17 16 16 17 18 16 15 18 23 26 27 28 29 29 29 28 28 27 25 23 23 25 26 27 27 27 27 26 25 24 24 24 24 24 24 23 22 22 22 22 22 21 21 22 22 22 20 19 18 17
5 6 6 4 5 6 5 4 4 5 5 5 5 5 6 8 9 8 7 6 6 5 5 4 2 3 6 8 8 8 9 11 13 15 17 17 17 17 15 15 17 17 15 16 21 25 26 27 28 28 27 27 27 27 26 24 24 25 25 25 25 27 27 26 25 24 23 22 21 21 21 22 22 22 22 22 21 21 21 22 23 22 21 19 18 17 16
5 5 5 4 4 6 6 5 5 6 7 6 6 7 8 10 10 8 7 6 5 5 4 2 1 3 6 7 7 7 9 12 15 17 17 17 17 15 13 12 14 15 15 19 24 26 26 28 28 27 26 26 27 27 26 24 23 24 24 24 25 26 26 26 25 23 22 21 20 20 21 21 22 22 22 21 21 21 22 23 22 21 19 18 17 16 16
3 2 2 2 3 4 5 5 5 6 6 6 6 7 8 10 10 8 7 6 5 4 2 1 2 3 5 5 6 7 9 12 15 17 17 17 16 13 10 8 9 11 13 19 24 25 26 27 27 26 26 27 27 27 25 23 22 23 25 26 26 26 26 25 25 23 21 20 20 21 21 21 21 21 21 21 22 23 23 23 21 20 18 17 17 16 15
2 2 2 1 2 2 2 2 3 4 5 5 6 7 9 9 9 8 6 5 4 4 2 0 2 3 5 6 7 9 11 12 14 16 18 17 16 12 8 7 9 12 14 18 23 25 26 26 26 26 25 26 26 25 23 22 22 24 26 26 26 26 26 25 24 22 22 22 21 21 21 20 20 20 20 21 23 24 23 21 20 19 18 17 16 15 15
3 3 2 1 1 0 0 1 2 3 3 4 6 8 9 9 8 7 5 4 3 3 3 2 2 3 5 7 9 11 12 12 14 15 15 15 15 13 10 9 13 15 17 19 23 26 26 26 25 24 23 23 23 23 21 21 22 23 24 24 24 24 23 23 22 22 21 21 21 21 20 20 19 20 21 22 23 22 21 20 19 18 17 16 15 14 14
4 3 3 3 3 2 1 1 1 2 2 4 5 7 9 9 8 7 5 3 3 3 4 4 5 6 7 9 10 11 11 12 14 13 11 10 11 12 13 15 18 19 20 22 25 26 26 25 23 22 21 20 20 19 19 19 20 21 22 22 22 21 20 21 21 21 20 20 20 20 20 19 20 20 21 22 22 21 20 19 18 16 15 14 13 13 13
6 5 4 4 4 3 1 1 1 2 2 3 4 6 8 9 9 8 6 4 2 2 3 4 5 7 9 10 10 10 11 12 14 14 12 9 7 7 11 17 21 22 22 24 26 25 24 22 21 20 18 17 16 16 17 18 19 19 19 19 18 17 17 17 17 18 18 19 20 21 21 21 21 21 22 21 21 20 20 19 18 16 14 14 14 14 14
7 6 5 4 4 3 1 0 1 2 2 2 3 5 7 8 9 8 7 5 3 2 1 2 3 6 8 9 9 10 11 13 14 14 11 8 6 7 13 19 23 23 24 24 24 23 21 21 20 19 18 16 16 15 15 16 16 15 14 14 14 14 14 15 15 16 18 20 21 22 22 22 22 22 22 20 19 19 19 19 19 17 16 15 15 15 15
5 5 4 3 3 3 2 1 1 1 1 2 3 4 4 5 7 7 7 6 4 2 1 1 2 4 7 9 10 10 11 11 10 10 9 8 8 12 18 21 23 24 25 24 23 21 20 20 19 19 17 16 15 14 14 14 13 12 11 11 11 12 14 15 17 18 20 21 21 20 20 21 22 22 20 18 17 16 16 17 17 17 16 15 15 14 14
4 4 3 2 2 2 1 1 1 0 0 2 4 4 3 3 4 5 6 6 5 4 2 1 2 4 7 9 10 12 13 12 8 6 6 7 9 13 19 22 24 25 24 22 21 20 20 20 19 18 16 16 15 13 12 12 12 12 12 12 12 14 17 19 20 22 23 23 22 20 19 19 20 20 19 17 16 16 15 15 15 15 14 14 14 14 15
4 4 4 3 2 2 1 1 2 2 2 2 3 2 1 1 2 4 5 5 6 5 3 2 2 4 7 8 8 10 13 12 8 6 6 7 10 14 20 23 24 23 22 20 18 18 18 19 18 17 16 16 14 11 8 7 8 9 10 12 13 15 18 20 22 23 24 23 22 21 20 19 18 17 16 15 15 15 15 15 14 13 13 13 13 13 13
3 4 5 5 4 3 3 3 3 4 4 2 1 0 1 1 1 2 4 4 5 6 5 3 2 4 6 7 7 8 10 10 8 7 9 11 13 16 21 23 23 22 21 20 19 18 18 19 19 19 18 16 12 7 4 3 4 6 8 10 12 13 15 17 20 21 20 19 18 18 19 18 16 14 12 11 11 12 13 13 13 12 11 10 9 9 10
3 4 6 6 5 5 4 5 4 5 5 3 1 1 2 3 2 1 2 3 4 6 5 3 2 4 5 6 7 8 9 8 7 7 11 13 15 18 22 24 23 22 21 21 21 21 20 20 20 20 18 15 10 6 3 3 4 5 6 8 11 13 15 16 17 17 16 15 15 15 16 16 14 12 11 10 11 11 11 11 10 9 8 8 8 9 11
6 6 7 7 6 6 6 6 4 5 5 4 2 2 2 2 1 1 2 2 3 4 5 4 3 4 6 6 7 7 8 7 6 9 12 15 17 19 22 23 22 22 21 21 22 22 21 19 19 18 16 13 10 7 5 4 4 3 3 4 8 13 16 17 17 17 16 14 14 14 14 14 13 12 11 11 10 9 8 9 9 10 10 11 11 12 12
6 6 6 7 7 7 8 8 7 6 5 4 3 2 2 2 2 3 3 3 2 3 4 4 4 4 5 7 7 7 8 8 10 12 15 16 18 21 23 24 22 21 21 21 21 21 20 19 18 15 12 10 8 7 5 4 3 2 0 1 3 7 10 12 13 15 15 14 13 14 14 13 13 12 11 10 10 10 10 11 12 12 13 13 13 13 13
Wind_Direction
219 200 185 166 151 155 160 156 171 185 168 162 176 197 203 163 165 240 234 165 204 255 229 202 225 178 144 145 145 148 148 144 142 142 146 152 153 147 146 150 152 150 149 145 139 139 140 141 143 145 146 147 148 150 152 153 152 149 143 135 132 135 137 137 138 142 146 146 145 145 145 146 148 149 150 149 148 148 149 148 147 147 146 144 142 141 139
357 263 211 176 147 141 155 162 170 170 165 172 181 192 190 167 195 238 180 169 231 248 202 185 213 182 137 122 134 145 145 144 145 148 153 156 155 153 153 154 154 155 155 149 144 144 145 146 147 147 146 146 148 149 149 148 148 145 140 137 141 146 147 145 144 146 147 146 146 147 146 147 147 148 149 147 147 147 146 145 145 145 145 145 144 141 136
6 14 163 169 151 144 147 155 159 154 151 156 153 149 151 142 276 273 133 150 264 262 173 129 157 155 136 136 151 153 148 146 148 152 157 157 158 159 158 155 154 156 157 154 151 150 150 151 150 149 148 147 148 148 146 144 145 145 143 144 149 151 149 147 146 146 146 146 147 147 146 146 146 147 147 146 146 145 144 145 146 146 146 144 141 138 133
348 356 102 143 136 131 132 133 147 147 141 142 154 169 169 168 175 140 96 105 265 258 126 115 145 148 138 145 155 151 147 150 153 159 163 162 163 164 162 161 160 161 161 160 157 154 152 153 153 151 149 148 147 146 143 143 144 147 148 149 149 148 147 146 145 146 148 147 146 144 145 146 147 147 147 146 145 144 144 147 147 146 145 141 138 137 134
342 342 103 122 105 106 136 194 184 163 138 133 136 150 204 182 152 138 154 222 233 191 134 134 153 150 145 150 153 152 153 154 156 163 164 165 167 165 164 164 162 161 160 157 155 154 154 155 155 153 151 149 147 146 145 146 148 150 150 147 144 143 143 144 145 148 150 148 145 145 147 149 149 148 147 147 146 146 146 148 148 146 143 140 137 137 135
71 335 75 108 102 128 212 236 198 161 136 145 143 153 213 198 159 159 209 231 213 160 145 151 156 151 146 146 149 155 154 153 157 163 165 167 167 164 162 159 154 150 145 145 151 154 155 155 154 152 152 152 150 148 147 147 146 145 143 142 142 144 145 146 147 148 149 147 147 147 149 150 148 148 149 149 148 148 148 149 149 147 143 141 139 137 135
119 9 57 93 125 213 244 271 216 173 170 165 142 100 190 189 190 278 309 348 109 121 127 140 140 131 128 126 129 147 159 161 160 164 173 174 167 162 154 139 125 114 122 137 148 153 154 154 152 152 153 152 150 147 146 146 145 143 143 144 147 148 147 147 147 148 148 148 147 147 149 150 149 150 151 150 150 150 150 150 151 148 144 142 141 137 135
124 70 69 111 199 254 297 345 142 144 104 126 118 69 16 200 193 192 104 57 108 111 118 133 127 119 119 117 120 148 168 173 165 166 178 178 167 156 141 130 130 139 147 153 156 156 155 154 153 153 153 152 148 145 144 145 145 144 145 147 148 146 144 145 147 147 147 146 145 147 150 151 151 152 152 153 153 152 151 151 151 148 145 145 144 140 137
128 113 87 68 356 339 349 1 45 114 62 266 148 131 359 303 213 175 155 143 132 125 124 124 122 114 100 97 136 163 167 168 160 161 171 169 159 150 147 150 156 159 160 160 159 157 156 155 155 154 153 152 149 145 143 143 143 144 147 149 149 147 145 148 150 149 148 147 146 148 152 152 152 153 154 155 155 154 152 152 151 149 145 146 147 145 143
83 102 85 35 36 11 270 267 284 276 227 231 176 124 77 306 286 187 160 144 138 141 136 135 139 116 92 121 211 183 166 158 145 143 147 148 151 154 154 156 157 157 156 155 156 157 156 156 157 155 155 154 149 145 145 145 146 149 152 152 152 152 151 153 153 152 151 150 150 152 154 154 154 155 155 155 157 157 156 154 153 151 148 147 149 148 148
55 95 100 95 105 172 251 263 290 307 252 224 146 99 54 290 290 241 177 155 151 157 150 151 153 123 116 218 231 179 161 155 140 139 137 134 147 157 157 155 150 149 148 148 152 156 153 153 156 157 157 155 149 146 148 148 149 152 155 155 156 156 154 153 153 152 152 153 154 156 157 157 156 156 156 156 158 159 158 155 155 154 152 150 151 152 153
73 94 94 151 188 212 267 270 287 297 265 124 96 106 243 265 273 245 193 170 166 165 160 168 169 146 165 225 217 154 149 144 134 141 143 141 147 151 152 151 149 148 147 146 148 152 153 156 161 161 158 154 149 147 150 151 153 156 156 155 156 156 154 152 153 155 156 157 159 160 160 159 158 157 157 157 158 158 156 155 156 156 156 156 155 157 161
74 89 91 85 251 258 275 283 289 290 342 76 91 181 224 241 259 240 194 178 181 178 171 177 182 176 221 245 177 141 138 134 131 136 140 145 151 151 150 151 150 150 151 151 154 160 163 164 164 161 157 152 148 148 150 152 156 157 154 153 155 157 156 156 157 158 159 161 162 163 162 160 158 158 158 158 158 156 154 154 155 155 157 158 157 159 163
61 88 101 79 298 268 274 294 299 307 89 109 177 219 219 210 237 237 198 185 195 197 183 153 77 283 274 247 152 139 135 137 137 133 133 138 145 150 151 153 154 153 154 156 160 165 167 165 162 160 156 152 149 150 151 153 157 157 154 155 157 158 157 157 158 159 160 161 163 163 162 160 158 157 158 158 157 155 153 153 152 152 154 156 156 156 159
89 59 63 70 224 256 298 326 335 21 98 184 215 245 281 234 211 200 198 197 196 199 190 131 44 328 23 96 139 142 135 137 137 135 139 138 140 147 151 155 158 156 154 159 163 165 165 161 159 158 154 148 148 151 153 156 159 158 157 158 159 158 157 157 158 159 160 161 163 162 161 159 157 156 156 156 156 155 154 152 150 149 151 153 153 152 154
109 72 60 132 205 248 299 357 56 249 282 236 203 190 311 283 225 177 199 211 203 197 190 159 114 345 98 120 149 145 136 140 141 141 144 141 143 151 154 158 160 157 155 160 162 161 162 160 159 159 155 150 151 156 157 157 158 157 158 159 159 158 158 158 159 160 160 162 164 162 160 159 157 155 155 156 155 155 154 152 150 149 150 153 154 153 153
116 136 197 222 233 260 290 311 233 264 303 309 208 198 273 294 243 180 193 221 214 197 183 163 151 182 188 171 167 158 150 148 145 144 145 144 146 151 154 156 160 159 158 159 157 157 160 160 158 160 158 155 155 157 159 161 161 159 158 158 158 158 160 161 160 161 161 164 165 163 162 161 158 156 156 156 155 155 156 155 153 151 152 155 157 157 157
19 123 202 283 318 306 313 317 273 263 297 331 344 303 301 299 268 213 213 231 219 189 173 171 174 192 193 174 170 167 153 146 144 140 139 143 146 149 150 153 158 159 157 156 154 152 155 158 158 159 161 163 163 162 162 163 163 161 158 157 158 160 162 162 163 163 163 164 165 165 165 164 161 160 160 159 157 158 158 158 157 156 157 160 161 162 162
60 69 323 326 330 309 320 336 328 309 309 318 326 286 274 290 303 297 264 232 209 186 176 176 173 177 177 167 167 168 154 149 150 143 137 143 147 148 150 154 156 155 153 153 153 151 153 160 163 163 167 171 169 164 162 163 163 162 160 159 160 162 163 163 164 165 165 165 165 165 166 165 163 162 163 163 161 160 162 162 161 162 163 165 166 167 167
87 191 281 305 306 272 290 345 347 335 327 320 315 288 268 286 314 318 313 219 172 175 177 168 153 143 140 126 105 76 109 140 145 142 141 143 146 148 152 155 156 155 155 157 158 157 158 163 166 167 169 170 167 163 163 164 164 162 161 161 163 165 165 165 165 167 169 169 167 166 166 167 166 164 165 165 164 164 166 167 166 167 170 173 175 175 175
33 323 316 345 14 357 352 6 352 319 312 310 310 312 326 351 353 349 3 28 114 150 152 147 133 119 104 88 74 50 25 15 36 130 140 141 144 148 152 156 158 159 159 160 162 163 163 163 166 168 168 164 162 163 163 165 165 162 162 164 165 166 166 166 166 168 170 170 170 168 167 168 168 168 168 168 167 167 170 172 171 170 174 178 183 184 184
47 310 310 344 70 337 316 325 327 320 314 313 321 340 359 354 343 359 33 30 35 76 100 116 128 131 134 131 121 108 85 46 20 39 131 137 141 147 152 157 161 161 161 164 166 165 165 165 166 167 164 160 161 163 164 166 166 164 162 163 164 165 166 166 167 167 167 168 170 170 169 168 167 168 170 172 171 171 172 175 175 173 173 178 185 189 192
196 251 261 237 150 221 266 275 300 318 325 333 345 358 350 318 309 328 69 67 51 55 70 98 134 152 161 159 154 155 150 135 127 140 153 144 140 147 153 155 156 159 162 165 166 165 165 165 165 164 161 160 162 165 166 168 168 166 164 163 162 164 166 167 167 168 167 167 169 170 171 171 169 169 171 175 179 180 180 181 183 183 181 182 187 193 198
223 261 240 205 176 243 270 273 294 318 336 342 347 356 344 323 324 357 50 79 88 83 70 69 94 125 137 135 140 155 157 150 147 151 157 154 150 154 157 156 156 160 163 165 166 165 164 164 163 161 160 163 166 167 168 169 170 169 167 165 164 164 167 168 168 169 169 169 169 170 170 171 172 173 174 177 182 188 192 194 196 196 195 194 195 198 200
291 299 246 209 212 248 269 271 284 332 358 357 352 354 348 348 15 40 47 53 61 74 74 55 48 66 73 53 38 46 52 119 143 144 145 149 152 154 158 161 162 163 165 166 165 163 161 161 161 159 161 166 170 170 169 170 170 170 170 169 168 167 167 168 168 169 170 170 171 171 171 173 176 177 179 181 183 188 194 201 205 207 207 204 202 199 194
276 286 283 312 310 309 321 322 339 354 357 358 11 8 358 17 48 58 60 59 61 75 92 91 79 90 105 111 103 94 77 68 123 136 138 143 151 156 163 169 168 166 163 161 159 159 160 161 159 158 160 166 170 170 171 172 173 172 173 173 172 172 172 171 170 171 173 173 174 175 176 178 180 181 183 186 188 187 189 193 199 206 207 204 202 200 193
306 289 244 69 339 337 358 27 319 325 334 349 17 20 20 43 58 59 55 55 62 76 97 114 118 119 125 130 127 127 129 129 133 139 142 148 157 165 170 171 167 162 158 154 153 156 157 157 158 160 164 169 174 175 175 174 174 174 174 175 175 175 176 176 176 176 177 178 178 179 180 181 183 185 187 189 192 193 194 194 195 198 199 197 197 199 195
358 352 21 147 201 254 297 322 303 313 340 358 11 19 33 46 53 51 45 41 46 60 81 104 120 126 126 121 120 128 138 141 144 152 156 159 164 167 168 168 164 160 156 152 153 155 156 159 164 167 168 172 177 179 177 175 175 175 174 174 174 174 176 178 180 180 181 182 182 183 184 184 186 188 190 192 195 198 201 202 199 194 192 193 196 198 195
355 346 13 62 139 195 65 18 11 11 8 5 13 26 41 53 54 43 27 18 24 42 60 83 107 123 134 136 136 141 149 152 156 161 163 164 165 165 164 163 160 156 154 154 156 159 163 166 166 164 163 168 172 175 176 176 176 176 176 176 176 176 176 179 181 182 182 183 184 185 185 184 185 187 190 194 198 199 199 197 195 192 191 192 195 196 192
350 358 32 30 19 42 53 31 13 11 5 7 24 29 32 55 67 50 20 15 27 32 32 57 89 105 121 135 142 149 157 158 157 159 161 162 162 161 158 152 145 143 149 156 161 163 164 163 160 158 161 167 171 173 176 177 178 179 179 179 180 180 180 181 182 181 181 181 181 182 182 182 184 186 189 192 194 193 192 191 191 193 193 194 196 196 193
30 39 51 41 33 50 51 26 13 14 5 15 35 29 19 35 58 51 27 24 37 37 26 37 64 85 105 125 135 142 147 147 149 154 159 160 162 162 162 159 157 159 164 167 168 167 166 163 161 164 169 173 175 177 179 179 179 179 178 179 180 182 183 184 183 182 182 181 180 180 180 181 182 185 188 188 188 188 189 191 194 196 196 196 198 198 194
64 45 42 35 35 46 41 22 23 24 14 24 40 30 13 24 46 41 20 9 12 49 67 66 65 81 111 127 131 134 138 141 147 153 156 160 164 167 169 172 174 173 172 170 170 170 168 164 163 167 171 174 177 179 182 182 181 179 179 180 180 181 182 183 183 183 183 182 181 181 181 182 183 186 187 188 189 191 194 197 200 201 200 199 200 199 196
73 53 32 16 36 55 46 23 20 25 24 40 54 38 20 40 52 41 20 8 358 360 57 96 102 109 124 131 131 131 132 133 138 147 153 159 165 169 172 177 177 172 169 169 170 172 171 168 168 172 176 177 179 181 183 184 182 180 180 181 181 180 181 182 183 183 183 183 184 185 185 186 187 188 189 191 194 197 199 202 203 202 201 202 203 202 200
90 98 91 307 97 95 87 65 36 33 36 48 57 47 35 34 32 24 22 29 21 351 340 98 126 132 135 134 134 136 137 135 141 158 163 164 165 168 170 171 168 166 166 169 171 174 175 174 173 175 177 178 179 180 181 183 184 182 181 181 181 180 180 181 183 183 183 184 186 187 188 190 192 193 194 196 197 199 201 203 203 202 202 205 207 205 203
87 96 82 54 66 88 102 109 92 58 44 36 26 25 28 26 28 27 24 26 23 351 332 351 133 138 140 140 143 148 151 154 161 167 166 163 162 161 159 155 152 153 156 164 172 176 177 178 178 178 177 177 180 181 181 182 183 184 185 185 184 182 181 181 183 185 186 188 189 190 191 194 195 196 197 198 199 201 203 202 202 202 203 204 203 202 202
76 91 78 53 48 54 69 82 84 77 67 44 12 4 19 25 29 32 23 14 13 5 349 346 141 140 139 144 153 158 159 158 158 158 158 159 159 158 156 153 151 148 147 155 171 177 177 178 181 181 178 177 179 180 180 180 183 189 192 189 183 180 181 182 185 188 190 192 194 195 196 197 198 198 200 201 201 202 202 201 201 201 201 200 200 200 204
60 83 89 72 66 68 65 61 64 73 70 51 23 15 18 17 22 31 32 20 14 10 359 334 259 164 150 151 155 156 156 160 160 157 157 158 158 156 153 151 151 150 149 157 170 175 177 179 181 181 179 178 179 180 181 182 185 189 189 185 181 180 181 182 185 188 191 194 197 198 199 199 199 200 202 203 203 203 202 200 199 198 199 201 204 209 214
62 81 97 103 96 85 73 58 56 63 58 43 29 22 16 11 13 21 29 28 18 5 351 332 285 176 151 146 147 149 154 161 160 156 156 159 159 157 155 157 162 165 168 171 172 174 176 178 178 178 178 180 181 182 182 183 186 186 184 183 184 184 182 183 187 190 192 195 199 201 202 202 201 201 201 202 202 201 199 197 197 199 202 209 217 224 230
78 81 91 97 92 80 67 54 48 48 44 34 23 17 14 10 7 9 21 32 29 14 354 328 225 147 133 131 134 140 151 159 159 156 155 158 159 157 157 167 177 181 180 176 174 174 176 176 175 177 179 181 182 182 182 184 187 188 188 189 191 188 186 187 191 194 194 195 198 200 201 200 199 198 198 198 198 197 197 197 200 206 213 222 230 236 240
117 124 127 108 84 71 62 54 47 43 42 36 23 12 8 5 2 5 17 29 32 24 4 277 178 139 129 131 132 136 147 157 159 156 154 153 152 147 143 158 180 188 184 179 177 176 175 175 177 179 181 182 182 182 182 186 191 192 191 191 191 190 189 191 193 194 194 195 196 196 196 196 196 196 196 195 195 197 200 204 210 218 226 233 237 240 241
195 193 189 119 74 61 60 64 53 45 45 39 25 15 11 7 3 6 16 31 41 44 43 157 173 154 152 151 145 145 150 156 159 158 155 152 148 141 134 150 175 183 183 181 178 175 173 175 178 179 180 182 183 182 183 188 193 194 193 191 190 190 191 191 193 195 194 193 193 193 193 194 195 194 195 197 201 204 209 216 224 230 235 238 238 238 238
215 196 197 160 109 139 182 98 70 49 42 38 28 19 14 12 10 12 19 34 54 61 69 99 142 159 162 156 147 144 147 152 156 158 160 161 159 155 152 160 172 178 180 180 177 174 173 176 179 179 178 179 180 181 184 190 194 194 194 193 192 192 192 192 193 194 193 191 191 193 195 195 196 196 199 205 211 216 222 228 232 234 236 236 235 235 237
209 202 211 208 203 212 209 98 74 30 22 32 31 24 18 17 19 21 22 27 45 64 81 105 130 149 155 151 143 138 141 148 152 152 153 158 166 171 172 170 170 175 178 176 172 171 173 176 178 179 178 178 179 182 187 192 194 195 195 194 192 192 193 193 192 192 191 190 192 195 197 199 202 206 210 216 221 226 230 231 229 228 229 230 231 234 239
211 216 231 234 234 243 250 76 31 358 6 22 25 24 25 26 26 27 23 18 23 50 79 108 132 146 152 153 149 145 147 153 155 153 147 138 139 165 180 176 171 171 174 172 170 170 172 175 176 177 178 178 178 180 184 189 192 194 194 194 192 192 195 196 196 195 195 197 199 201 204 208 213 218 222 225 227 230 230 227 225 224 225 227 232 238 244
217 222 232 239 246 256 255 191 337 334 350 8 12 20 26 26 26 27 26 21 17 26 60 112 138 149 154 156 155 157 161 164 164 162 158 147 139 161 177 177 172 170 170 170 169 169 170 172 174 175 174 172 171 172 177 184 188 188 190 193 195 195 196 201 206 209 211 212 213 213 214 216 219 223 226 227 228 229 228 227 226 227 229 234 241 247 251
232 233 230 227 247 273 310 359 346 330 352 1 359 9 24 28 27 27 27 26 25 23 26 166 166 164 162 156 149 146 150 157 164 170 177 182 180 176 177 177 175 171 170 169 168 167 167 168 170 171 169 166 167 171 175 179 181 183 186 192 198 202 204 208 212 216 218 220 219 216 213 214 216 218 220 221 222 224 226 227 228 230 234 241 248 252 255
216 224 213 202 231 268 321 2 344 293 5 353 344 349 14 40 34 28 28 32 35 35 41 111 164 175 173 167 159 155 152 148 147 158 177 185 184 179 178 178 176 174 173 174 173 171 169 169 170 169 164 161 162 168 173 177 184 191 196 199 206 213 215 216 217 219 220 220 217 212 209 211 213 214 214 217 222 227 230 231 232 234 238 245 252 256 260
185 202 200 195 215 234 232 247 274 283 299 319 327 334 357 50 44 32 33 40 47 51 60 91 152 179 181 181 182 179 171 162 152 151 165 174 178 179 178 177 176 175 176 177 174 170 169 171 171 168 161 157 156 157 161 171 185 198 204 208 214 218 219 218 219 219 217 213 210 209 210 212 212 212 216 224 232 236 238 238 239 242 248 253 257 258 257
186 192 185 184 199 218 218 227 262 291 307 316 332 334 189 169 106 43 38 49 60 64 70 83 129 173 185 191 195 191 186 184 183 176 170 172 177 178 175 173 172 174 174 172 167 164 163 164 164 162 162 162 161 161 168 193 204 205 207 209 213 217 218 217 215 212 210 209 210 213 215 215 215 219 226 234 238 242 244 246 248 250 251 250 245 237 227
171 179 185 194 209 226 231 234 258 295 313 315 300 207 190 187 172 88 66 77 80 77 79 89 132 167 181 191 195 192 193 200 202 184 172 173 177 178 173 170 169 170 169 166 162 161 162 163 164 165 167 170 170 168 175 193 199 199 201 205 210 216 219 216 210 208 210 215 217 218 217 218 220 226 236 244 246 246 245 242 237 230 223 217 211 206 202
192 199 208 217 229 242 251 255 276 314 326 313 268 217 206 212 206 160 140 135 117 105 103 108 128 157 171 179 184 186 189 192 190 180 174 174 174 173 170 168 166 166 165 162 161 161 163 165 164 162 161 160 157 148 138 135 143 151 172 202 215 220 220 216 212 210 210 210 211 212 215 218 225 235 244 246 242 233 219 209 205 204 204 205 204 200 195
218 228 236 241 245 255 269 278 286 300 310 302 270 233 222 220 199 178 177 184 175 151 141 132 130 146 169 176 175 173 175 176 174 173 170 168 166 165 165 163 162 163 163 163 162 162 162 161 158 156 155 152 145 133 118 109 113 127 158 264 236 225 218 211 208 207 203 199 202 210 217 223 231 234 229 219 207 199 196 197 199 200 199 197 194 191 188